Flag for Denmark Weather past 2 weeks in Roskilde, Denmark

45 °F

Light rain. Partly cloudy.

Feels Like: 41 °F
Forecast: 46 / 51 °F
Wind: 7 mph from Northeast

Location: Koebenhavn / Roskilde

Current Time: Oct 13, 2015 at 11:45:32 PM

Latest Report: Oct 13, 2015 at 11:20 PM

Visibility: N/A

Pressure: 30.21 "Hg

Humidity: 93%

Dew point: 43 °F

Location of RoskildeLocation

Historic Weather in Roskilde — Graph


Roskilde temperature yesterday

Maximum temperature yesterday: 48 °F (at 10:20 AM)
Minimum temperature yesterday: 43 °F (at 2:20 AM)
Average temperature yesterday: 45 °F

Past Weeks' High & Low Weather Summary

High63 °F (Sep 30, 2:50 PM)100% (Sep 28, 10:20 PM)30.74 "Hg (Sep 28, 10:20 PM)
Low41 °F (Sep 29, 5:50 AM)48% (Sep 29, 4:20 PM)29.89 "Hg (Oct 4, 6:20 AM)
Average50 °F81%30.25 "Hg
* Reported Sep 28 10:20 PM — Oct 13 10:20 PM, Roskilde, Weather by CustomWeather, © 2015

Note: Actual official high and low records may vary slightly from our data, if they occured in-between our weather recording intervals... More about our weather records


Roskilde weather history for previous 24 hours

Time TempWeatherWind HumidityBarometerVisibility
10:20 PM
Tue, Oct 13
45 °FLight rain. Passing clouds.8 mph93%30.21 "HgN/A
9:50 PM45 °FLight rain. Passing clouds.7 mph93%30.21 "HgN/A
9:20 PM45 °FLight rain. Partly cloudy.7 mph87%30.21 "HgN/A
8:50 PM45 °FLight rain. Mostly cloudy.9 mph93%30.21 "Hg4 mi
8:20 PM45 °FSprinkles. Mostly cloudy.6 mph93%30.21 "HgN/A
7:50 PM45 °FSprinkles. Passing clouds.5 mph93%30.21 "HgN/A
7:20 PM45 °FLight rain. Overcast.7 mph93%30.21 "HgN/A
6:50 PM45 °FSprinkles. Broken clouds.5 mph93%30.21 "HgN/A
6:20 PM45 °FSprinkles. Broken clouds.7 mph93%30.21 "HgN/A
5:50 PM45 °FLight rain. Mostly cloudy.6 mph93%30.21 "HgN/A
5:20 PM45 °FLight rain. Broken clouds.9 mph93%30.21 "HgN/A
4:50 PM45 °FLight rain. Mostly cloudy.12 mph93%30.21 "HgN/A
4:20 PM45 °FLight rain. Broken clouds.8 mph93%30.21 "HgN/A
3:50 PM45 °FLight rain. Cloudy.6 mph93%30.21 "HgN/A
3:20 PM46 °FLight rain. Broken clouds.8 mph87%30.21 "HgN/A
2:50 PM45 °FRain. Broken clouds.10 mph93%30.21 "Hg4 mi
2:20 PM46 °FDrizzle. Cloudy.10 mph87%30.21 "HgN/A
1:50 PM46 °FDrizzle. Broken clouds.10 mph87%30.21 "HgN/A
1:20 PM46 °FDrizzle. Broken clouds.10 mph87%30.21 "HgN/A
12:50 PM46 °FSprinkles. Broken clouds.13 mph82%30.21 "HgN/A
12:20 PM46 °FSprinkles. Broken clouds.9 mph87%30.21 "HgN/A
11:50 AM46 °FSprinkles. Broken clouds.9 mph87%30.24 "HgN/A
11:20 AM45 °FSprinkles. Cloudy.9 mph93%30.24 "HgN/A
10:50 AM45 °FLight rain. Cloudy.9 mph87%30.24 "HgN/A
10:20 AM45 °FLight rain. Broken clouds.9 mph87%30.24 "HgN/A
9:50 AM45 °FDrizzle. Broken clouds.8 mph87%30.24 "HgN/A
9:20 AM45 °FMostly cloudy.8 mph81%30.24 "HgN/A
8:50 AM45 °FOvercast.7 mph81%30.24 "HgN/A
8:20 AM45 °FPassing clouds.6 mph81%30.24 "HgN/A
7:50 AM45 °FMostly cloudy.7 mph81%30.24 "HgN/A
7:20 AM45 °FMostly cloudy.6 mph81%30.24 "HgN/A
6:50 AM43 °FOvercast.5 mph87%30.24 "HgN/A
6:20 AM43 °FMostly cloudy.6 mph87%30.24 "HgN/A
5:50 AM43 °FOvercast.7 mph81%30.24 "HgN/A
5:20 AM43 °FPartly cloudy.7 mph81%30.24 "HgN/A
4:50 AM43 °FMostly cloudy.7 mph81%30.27 "HgN/A
4:20 AM43 °FPassing clouds.7 mph81%30.27 "HgN/A
3:50 AM43 °FPartly cloudy.9 mph81%30.27 "HgN/A
3:20 AM45 °FPassing clouds.6 mph76%30.27 "HgN/A
2:50 AM45 °FOvercast.8 mph71%30.27 "HgN/A
2:20 AM46 °FOvercast.8 mph66%30.27 "HgN/A
1:50 AM45 °FOvercast.8 mph66%30.27 "HgN/A
1:20 AM45 °FOvercast.10 mph66%30.27 "HgN/A
12:50 AM45 °FOvercast.8 mph66%30.27 "HgN/A
12:20 AM45 °FOvercast.10 mph66%30.27 "HgN/A
11:50 PM
Mon, Oct 12
45 °FOvercast.9 mph71%30.27 "HgN/A
11:20 PM45 °FPassing clouds.10 mph66%30.30 "HgN/A
Weather by CustomWeather, © 2015

See weather overviewHow to use our weather pages